Back to catalog

CZ-6A DEB

AlivePO
NORAD 60854·DEBRIS·🇨🇳 China

Launched Aug 6, 2024 from Taiyuan Satellite Launch Center

Loading…

Next Passes (next 24 hours)

TLE

FreshSource: Space-Track

Epoch: Sep 14, 2026, 10:07 UTC

1 60854U 24140JH  26257.42216988  .00004880  00000-0  74991-3 0  9999
2 60854  88.9462 253.2536 0094313 277.5723  81.4790 14.70416589111299

Track CZ-6A DEB in real time with AllMySat

Download on the App Store